Address 0xb944b4d842fe6d80e49349beae90833e7c178f37

 

Overview

Balance:
0.615194676875361998 BNB

BNB Value:
$221.48 (@ $360.02/BNB)

Token:
Txn Hash
Block
From
To
Value [Txn Fee]
0x7fc9035220b871553f0cf1a67356b3c9805df86a5500246eee3bea3a9e8170f982584572021-06-13 9:58:572 days 16 hrs ago0xb944b4d842fe6d80e49349beae90833e7c178f37OUT PancakeSwap: Router v20 BNB0.002607012
0x92371e51644e4ba43ea4db61ddd5c09495ca931db86a4a3c551626046101b16b82584362021-06-13 9:57:542 days 16 hrs ago0xb944b4d842fe6d80e49349beae90833e7c178f37OUT PancakeSwap: Router v20 BNB0.0001991754
0x2b724269f5c5a24dcfd935bdc9011b6f8e6852a8d2f5a14b08d3e90e7864eea582574952021-06-13 9:10:322 days 16 hrs ago0xb944b4d842fe6d80e49349beae90833e7c178f37OUT 0xaee234825dc4687fae606485c1ebd06336052bcc0 BNB0.0002270775
0xa1ef1df995b26c9dec8d17015c20d861a7820b7cfd40bca4507987d419aa8b1c82574822021-06-13 9:09:532 days 16 hrs ago0xb944b4d842fe6d80e49349beae90833e7c178f37OUT 0xf9787fdc6b73b49abc93710b81fafd4eaf02a2fc0 BNB0.0002271948
0xcaaf9a000a02c2ccf510e7f32595c7c42b657471d8d7655bdc8fa895ef8c12c682574302021-06-13 9:07:042 days 16 hrs ago0xb944b4d842fe6d80e49349beae90833e7c178f37OUT PancakeSwap: Router v20 BNB0.0020975637
0x032e38e4a4eda7d6c932dc02b083e10d466277957c4f6b447ac73fd451008d1d82566412021-06-13 8:27:212 days 17 hrs ago0xb944b4d842fe6d80e49349beae90833e7c178f37OUT PancakeSwap: Router v20 BNB0.001311975
0xe8dd42b014bdb8093313478f4ad833a1a6186c059adaf001202f3bcf8f9ea1bb82517922021-06-13 4:22:182 days 21 hrs ago0xb944b4d842fe6d80e49349beae90833e7c178f37OUT PancakeSwap: Router v20 BNB0.0013268466
0xf6d0382152b1836ae803ff01d4ade12cc0b7bf39de326244c703d5cf981b4e2f82495002021-06-13 2:27:292 days 23 hrs ago0xb944b4d842fe6d80e49349beae90833e7c178f37OUT PancakeSwap: Router v20 BNB0.0002812599
0xcedef97c93d3da6a6b461722e7cf4d000235830c3ff3c2800c7e493e9d385be582494982021-06-13 2:27:232 days 23 hrs ago0xb944b4d842fe6d80e49349beae90833e7c178f37OUT PancakeSwap: Router v20 BNB0.0012734394
0xb1efeebcb28507e7cdf21e3c620d48bdde3a858ae2fa45cad7b5203f517b14b982494322021-06-13 2:24:052 days 23 hrs ago0xb944b4d842fe6d80e49349beae90833e7c178f37OUT PancakeSwap: Router v20 BNB0.0013152951
0xbd91d34d33429919cd59020bc641499fcc143f3c78254e368fbfa3c9e45bf70982494072021-06-13 2:22:502 days 23 hrs ago0xb944b4d842fe6d80e49349beae90833e7c178f37OUT PancakeSwap: Router v20 BNB0.00125862
0x5130a17b950bc34b7b12f539d0b59b781038f4bd37ae1c291cdbe0a287385aee82328232021-06-12 12:27:383 days 13 hrs ago0xb944b4d842fe6d80e49349beae90833e7c178f37OUT PancakeSwap: Router v20 BNB0.003860496
0x3b8b4c76b18fdb174fd3ac988d6b527c9bdccf0ac4b727b3bb0dcf15551816d482326262021-06-12 12:17:473 days 13 hrs ago0xb944b4d842fe6d80e49349beae90833e7c178f37OUT 0xb263ba5d623a533d4c1a5de262f287998c368f580 BNB0.000227001
0x9873b41466f8313ba283d430d8b37c29e6e00c13b77a655676712b0f92e3951182307632021-06-12 10:44:193 days 15 hrs ago0xb944b4d842fe6d80e49349beae90833e7c178f37OUT 0xa8c573cd88de2265b39954b4fa2da720385826160 BNB0.0004499348
0xbce33eebc17f69c17e775f2ca548694992a2b37400430c67ddd6a47a8259204282289992021-06-12 9:15:183 days 16 hrs ago0xb944b4d842fe6d80e49349beae90833e7c178f37OUT PancakeSwap: Router v20 BNB0.0012136062
0x6f77fb939e1a9bd4f759fe700c7289306259212c7dec857e58b74af83f6ca9a282286512021-06-12 8:57:543 days 17 hrs ago0xb944b4d842fe6d80e49349beae90833e7c178f37OUT PancakeSwap: Router v20 BNB0.0013517346
0x0c38c1314d516573d63c0f05b0ad793214ff9656791476c4fa7bb3aba8dfaf2f82279422021-06-12 8:22:273 days 17 hrs ago0xb944b4d842fe6d80e49349beae90833e7c178f37OUT PancakeSwap: Router v20 BNB0.0034449633
0xfc7d36504c8397f3d56682d47d5146bb53032ae0b7826f9c507335ef702aa16282216602021-06-12 3:08:083 days 22 hrs ago0xb944b4d842fe6d80e49349beae90833e7c178f37OUT PancakeSwap: Router v20 BNB0.0019378163
0xf3efee62aa76995190bf9e9aacd1eebb1341c8b388bb281d59f6e1d52eb03fee82213652021-06-12 2:53:193 days 23 hrs ago0xb944b4d842fe6d80e49349beae90833e7c178f37OUT PancakeSwap: Router v20 BNB0.0009785013
0xe352edb1a65304e6a3896180489f4dc9809b2d1d76302e44d04663062d69225d82212572021-06-12 2:47:553 days 23 hrs ago0xb944b4d842fe6d80e49349beae90833e7c178f37OUT PancakeSwap: Router v20 BNB0.0009785013
0xaecb8d543fbbe22ea8507a5d86884f456c6de79a64654d4db6b9b4e6ec9d06dc82212122021-06-12 2:45:403 days 23 hrs ago0xb944b4d842fe6d80e49349beae90833e7c178f37OUT PancakeSwap: Router v20 BNB0.0008552445
0x093cf811a3cb90a9568b85e672757c2bac25c4d89c8affa65dccfbde75ebfbff82210992021-06-12 2:39:333 days 23 hrs ago0xb944b4d842fe6d80e49349beae90833e7c178f37OUT PancakeSwap: Router v20 BNB0.0010550013
0xdf93f8d28836ab3de1a0cb32a03f645798b3ede16d8caa9a588c2cad3a78ef8f82193252021-06-12 1:10:424 days 49 mins ago0xb944b4d842fe6d80e49349beae90833e7c178f37OUT PancakeSwap: Router v20 BNB0.000740775
0x34e015a25cfa50823104a6c3670ee6f70184202d349463183e4e5f7fc77adddd82187992021-06-12 0:44:094 days 1 hr ago0xb944b4d842fe6d80e49349beae90833e7c178f37OUT 0x490fb8ab5869d0a0dd76f9e1b5c1360e8da044230 BNB0.0002259147
0x76c5d28aee9b8eec8bd1c092ab0cfc6fb5be1a7fd3b9766baec97dd5eb94935682179902021-06-12 0:03:424 days 1 hr ago0xb944b4d842fe6d80e49349beae90833e7c178f37OUT PancakeSwap: Router v20 BNB0.0009934902
[ Download CSV Export 
Latest 11 internal transactions
Parent Txn Hash Block From To Value
0x5f0b184531662277665ca7314308fd56d8d28b9e0e03943143099eefa00e518082058232021-06-11 13:52:004 days 12 hrs ago PancakeSwap: Router v20xb944b4d842fe6d80e49349beae90833e7c178f370.33187815411488807 BNB
0x8c10318fa5f20be97902b6ab7c247f57322432e04668a2d58b80e6961c58de3581931782021-06-11 3:18:534 days 22 hrs ago 0x0952ddffde60786497c7ced1f49b4a14cf527f760xb944b4d842fe6d80e49349beae90833e7c178f370.086252254018636412 BNB
0x36417f7dc604afeba60cad7206bdd262351d7518e37e8f6e89d7c3d1d90cdead81379722021-06-09 5:07:426 days 20 hrs ago PancakeSwap: Router v20xb944b4d842fe6d80e49349beae90833e7c178f370.118550006219610167 BNB
0xe2d145b375d876c34d52209668fe87a98c7fd501af6497a24cb966f78b11673779814442021-06-03 18:23:3612 days 7 hrs ago PancakeSwap: Router v20xb944b4d842fe6d80e49349beae90833e7c178f370.000785621849095617 BNB
0x67f1ae536429bfd5016355c171c1120bd9c3ed4c3824396ca56b4e84bfdc6c3673607882021-05-13 0:52:0834 days 1 hr ago PancakeSwap: Router v20xb944b4d842fe6d80e49349beae90833e7c178f370.005680116222198756 BNB
0xeb2f317105fa3b700616bb58c1442afc5a4372d75fe97f1e160c083732005f8873606292021-05-13 0:44:1034 days 1 hr ago PancakeSwap: Router v20xb944b4d842fe6d80e49349beae90833e7c178f370.296145077207855909 BNB
0xbf3ff561c13f7ffe9c529a0f692d3ff1443b26af5663de8711660cf603b4a85b72668742021-05-09 10:07:0237 days 15 hrs ago PancakeSwap: Router v20xb944b4d842fe6d80e49349beae90833e7c178f370.073130335892552847 BNB
0x1ada0ae7cd736701dc5a61c56645301b8db5a0e44b1225a17262f16adcd6642969493722021-04-28 4:54:0848 days 21 hrs ago PancakeSwap: Router v20xb944b4d842fe6d80e49349beae90833e7c178f370.103037344444774879 BNB
0x341ed0579345954615d705dd33814f4d4eef60201d61f942e928ab61ae0131f968734062021-04-25 13:09:2251 days 12 hrs ago PancakeSwap: Router v20xb944b4d842fe6d80e49349beae90833e7c178f370.128154137390148875 BNB
0x529bb50957c36edc1841806afd3c34d56e5790adc50891869894b600cc87d0fa68659462021-04-25 6:53:1951 days 19 hrs ago PancakeSwap: Router v20xb944b4d842fe6d80e49349beae90833e7c178f370.207180996000270467 BNB
0x05da0f749dd1805831a38d7b6482afdf0cc3bf2cd85cc4588734514511d5cd1c65881432021-04-15 13:17:1061 days 12 hrs ago PancakeSwap: Router0xb944b4d842fe6d80e49349beae90833e7c178f371.730008201630722906 BNB
[ Download CSV Export 
Loading

Contract Name:
0 BNB

Compiler Version
0

Optimization Enabled:
0 BNB

Other Settings:
-NA-
Block Transaction Gas Used Reward
Age Block Fee Address BC Fee Address Voting Power Jailed Incoming
Block Uncle Number Difficulty Gas Used Reward
Loading
Loading
Make sure to use the "Vote Down" button for any spammy posts, and the "Vote Up" for interesting conversations.